Wind_Speed
40 46 46 51 54 46 41 43 41 37 34 32 33 35 36 41 42 36 36 36 35 34 27 27 27 27 26 24 23 22 23 23 24 27 34 33 27 27 19 15 15 18 19 17 22 21 16 12 14 15 11 11 10 8
43 32 48 47 46 44 42 42 40 39 34 31 30 29 29 32 36 39 38 35 34 35 26 27 26 24 21 22 16 20 20 21 23 25 25 24 24 18 15 15 15 16 20 21 20 18 15 16 16 15 14 11 7 9
44 46 40 40 40 43 40 40 39 35 31 28 29 25 22 28 31 31 31 32 33 30 25 26 21 26 20 21 16 19 20 23 26 24 20 19 16 14 16 14 18 20 21 19 18 18 19 18 16 15 13 10 9 10
43 39 42 43 38 38 38 37 33 29 26 27 28 32 35 30 29 30 29 31 31 27 25 24 26 23 24 22 18 15 18 19 25 20 20 17 16 15 18 19 20 19 20 18 18 20 21 16 15 13 11 10 11 11
45 40 35 34 31 33 37 35 29 25 25 27 30 31 28 28 29 28 28 30 28 27 24 25 24 23 26 24 17 15 14 18 22 22 19 20 21 20 21 22 21 19 15 14 15 17 19 16 14 12 11 11 11 12
42 39 32 35 32 27 28 28 25 25 27 28 27 27 27 29 29 27 29 29 25 23 22 23 21 20 25 25 19 17 19 18 21 22 24 27 28 26 24 24 21 19 17 17 16 15 15 15 13 11 11 11 11 13
41 34 33 33 33 26 25 24 25 25 27 27 27 28 28 29 27 26 25 25 24 24 22 20 17 16 21 23 18 22 19 22 26 28 29 27 28 29 28 26 24 20 20 17 17 13 13 12 11 12 11 12 13 14
41 40 36 30 29 28 24 24 24 27 27 28 27 28 29 28 27 26 25 24 23 22 22 19 15 15 18 18 19 21 20 22 25 26 27 27 27 29 28 24 23 22 22 19 16 13 11 12 12 11 11 12 14 16
39 39 37 33 29 25 24 25 28 30 30 29 28 28 27 26 24 23 24 23 22 23 21 14 13 11 13 13 13 15 18 20 21 21 21 23 26 24 21 21 21 20 22 21 16 13 11 12 12 12 12 13 15 18
39 40 39 40 36 27 27 29 31 30 29 27 27 27 25 22 24 22 21 21 20 23 20 17 15 14 13 13 14 14 14 17 18 18 20 22 20 20 20 20 20 19 18 16 13 11 10 11 13 13 14 15 17 18
38 29 40 43 35 29 33 31 29 28 28 28 27 23 22 22 25 26 26 24 23 22 18 16 14 17 14 15 14 14 13 12 13 15 16 13 14 15 16 15 17 15 14 13 12 12 14 15 17 18 18 17 18 18
34 36 39 36 34 36 31 28 29 30 33 29 28 25 25 25 29 29 27 25 20 21 14 15 16 17 18 18 17 15 14 14 14 13 10 12 13 12 12 13 14 13 12 13 13 15 15 16 17 17 19 19 18 18
41 40 38 35 31 27 28 32 34 31 27 29 29 32 33 33 36 31 21 20 20 15 15 14 16 19 22 22 20 17 14 17 16 12 10 12 12 10 10 11 11 12 12 12 12 13 15 16 17 19 19 20 18 20
42 40 35 27 22 23 31 38 32 27 21 28 39 39 28 31 27 23 23 23 22 18 18 18 18 22 22 20 21 17 12 16 18 16 14 12 12 13 13 12 12 13 14 15 17 17 18 19 20 21 20 22 20 19
33 32 30 26 24 28 36 34 30 25 28 36 26 22 21 19 19 16 16 18 19 17 14 14 16 16 18 18 17 15 16 12 11 14 14 16 14 13 14 14 15 15 16 17 17 19 20 21 20 21 21 22 22 21
22 20 21 22 26 33 36 32 27 26 26 27 28 24 20 17 12 15 14 14 17 19 16 15 16 16 16 15 15 16 16 16 16 16 15 14 15 16 17 18 18 17 18 19 20 20 21 21 21 22 23 22 24 24
19 21 23 25 30 36 34 31 29 26 30 27 25 22 20 17 16 13 13 16 17 17 16 15 13 12 11 12 12 14 15 15 15 15 16 15 15 16 17 18 19 21 21 20 20 21 23 23 23 24 25 26 25 26
21 24 24 29 31 33 31 31 31 31 28 25 26 24 21 19 19 18 18 17 16 16 15 15 14 14 14 14 15 17 16 14 13 13 14 16 17 19 20 20 21 22 22 22 22 23 24 25 25 26 27 27 28 29
19 21 23 28 29 28 29 29 32 32 30 28 26 23 19 18 21 19 17 14 14 14 14 14 13 13 15 16 15 14 13 13 14 15 16 16 17 19 20 21 21 21 21 20 22 24 24 25 26 27 28 30 32 32
17 17 16 17 19 20 21 20 23 27 30 27 25 21 19 21 21 19 16 13 12 13 15 15 15 16 15 15 15 15 14 13 14 15 16 17 18 19 20 21 21 21 23 24 23 24 25 27 29 30 31 31 32 32
13 13 13 13 13 14 15 17 19 21 22 23 22 21 21 22 21 18 14 13 12 13 15 16 16 15 16 15 16 16 16 16 17 17 17 18 20 20 20 21 22 23 24 25 25 26 27 28 29 29 30 31 31 31
11 12 12 12 13 13 14 15 16 18 19 19 20 21 23 23 22 19 16 14 14 14 13 12 12 14 15 16 16 16 17 17 17 17 18 19 20 22 23 24 24 25 25 26 27 27 28 29 30 30 30 31 32 33
6 7 9 9 11 12 13 14 15 15 17 18 20 21 21 20 21 20 19 17 17 17 16 15 16 16 16 17 18 19 19 20 20 21 22 22 22 22 23 23 24 25 26 28 29 29 29 30 30 31 32 33 34 36
4 2 2 4 7 9 11 12 13 14 16 16 18 20 22 23 23 23 21 21 22 21 20 19 20 20 19 19 19 20 21 21 22 22 22 22 22 22 22 23 25 26 27 28 29 30 30 31 32 32 34 35 38 39
2 1 3 5 7 8 9 11 13 15 15 16 17 18 19 20 22 22 22 23 24 24 23 23 23 23 22 22 22 23 24 23 22 22 22 23 24 25 26 27 28 29 29 29 30 31 32 32 33 34 37 39 40 38
7 7 7 7 7 9 11 12 12 14 16 17 18 18 19 19 19 19 19 21 21 22 23 23 23 22 23 24 25 26 25 25 25 25 25 25 25 26 26 27 28 29 29 29 30 30 31 33 36 38 39 37 36 38
16 16 15 14 12 12 12 13 15 15 15 16 18 20 20 21 21 20 20 22 22 23 23 23 23 23 23 23 24 25 26 26 26 27 27 27 27 28 28 28 27 28 28 29 30 32 34 37 36 35 37 38 37 37
13 17 20 20 19 17 15 14 14 15 18 17 16 17 20 21 21 21 21 21 22 23 24 24 24 24 24 24 25 26 26 26 26 27 26 26 25 25 25 25 26 27 28 30 33 34 34 35 36 36 36 36 36 36
8 6 9 14 19 18 16 15 14 15 15 18 17 16 16 17 18 20 22 23 22 22 22 22 24 24 24 24 24 24 25 25 24 24 24 23 22 24 24 26 27 30 32 32 32 33 34 34 35 35 34 33 32 30
9 9 8 4 4 9 11 12 13 13 14 15 17 17 16 15 15 15 16 17 17 18 19 20 21 21 21 21 21 21 20 19 20 20 21 22 23 25 27 29 30 29 30 31 32 33 33 33 32 32 32 32 33 34
7 7 6 5 3 2 2 4 6 8 9 11 13 15 15 15 16 15 15 15 15 15 15 15 15 16 16 17 18 18 19 20 21 22 24 25 27 28 27 28 28 30 31 31 31 32 32 33 33 34 34 35 35 35
9 7 5 5 5 4 5 6 6 7 8 9 10 10 11 12 13 13 15 15 15 15 15 15 16 17 17 18 19 20 21 22 24 25 25 25 26 27 28 29 28 29 31 33 35 35 35 35 35 35 36 36 36 35
12 12 11 9 7 7 6 5 6 7 9 10 11 11 12 12 13 14 15 14 15 16 17 18 18 19 19 20 20 20 20 21 22 23 24 25 26 26 28 30 32 33 33 33 34 35 36 36 36 36 36 34 33 31
Wind_Direction
171 192 195 199 207 210 212 216 219 217 220 219 219 219 224 225 222 225 227 232 237 243 250 248 245 241 245 250 258 263 266 264 258 248 241 247 267 257 248 230 235 237 241 245 257 257 258 245 265 269 289 295 288 288
190 188 192 202 211 209 213 214 213 221 221 217 215 214 215 222 226 228 229 236 242 245 239 236 234 233 237 241 253 267 268 262 239 231 236 252 252 235 226 227 236 241 245 247 255 248 249 256 270 277 294 294 291 304
187 189 188 193 199 206 208 214 218 220 222 214 207 197 205 216 219 224 222 223 228 232 221 219 223 225 226 215 247 266 267 248 237 236 231 213 206 212 211 222 241 242 246 250 254 249 241 258 274 278 281 284 300 313
174 184 194 198 204 206 209 211 217 222 214 205 197 193 206 214 214 215 212 214 217 217 209 209 213 222 216 215 240 272 257 234 215 214 213 211 214 223 227 236 248 256 258 255 246 243 242 253 268 270 278 287 302 317
169 172 177 189 197 203 206 209 216 215 204 194 188 195 204 204 207 208 205 209 209 207 199 203 210 224 215 215 228 244 244 220 208 204 205 236 231 233 237 244 253 254 248 241 234 237 240 255 261 264 273 287 301 320
183 186 189 192 198 207 204 210 209 201 195 189 192 198 199 202 202 197 197 202 201 205 204 204 214 225 213 214 238 229 222 209 213 216 222 234 236 241 243 249 254 244 234 236 240 236 239 248 253 263 274 289 303 316
173 184 186 197 201 204 208 204 196 189 187 185 191 194 195 195 190 191 196 201 205 210 208 211 217 211 215 224 242 230 236 231 239 237 239 247 250 243 248 252 255 245 232 233 236 241 244 251 257 264 279 293 305 313
176 181 185 188 194 205 205 195 183 178 179 186 188 188 187 184 184 189 198 202 208 215 218 216 214 214 217 232 235 237 241 239 245 248 248 246 247 247 251 253 253 238 223 228 237 239 246 257 262 271 285 299 306 310
187 192 194 197 194 204 197 178 173 176 181 181 176 177 180 181 181 192 197 202 206 213 219 211 223 218 233 239 236 237 241 246 246 246 249 245 244 250 253 245 237 233 223 229 236 240 249 262 270 280 292 304 309 311
197 197 206 208 209 202 178 173 176 177 175 172 174 176 177 174 182 184 183 188 197 207 212 213 207 216 216 227 241 239 241 238 242 244 245 244 243 244 243 226 226 215 214 227 232 241 262 281 289 294 301 307 309 312
208 193 204 212 200 188 171 174 174 170 167 163 157 164 169 171 173 184 183 185 199 202 206 209 219 205 219 237 249 251 237 234 235 235 238 236 221 224 213 204 205 217 224 233 239 268 276 280 288 295 294 301 307 307
219 188 175 177 170 169 165 165 164 161 159 164 167 170 168 172 177 184 193 201 200 198 207 215 219 229 233 244 252 250 231 226 210 212 201 187 205 192 199 210 217 226 232 238 246 258 265 275 282 289 293 298 300 309
152 155 152 149 151 158 163 164 157 159 161 162 162 166 167 176 184 191 199 201 202 212 219 235 233 233 236 241 242 248 232 215 203 200 206 213 210 210 218 221 227 233 240 246 259 272 276 281 290 290 291 291 292 302
136 144 145 146 150 161 165 160 160 155 170 172 168 174 178 175 190 205 212 212 219 225 235 238 231 225 229 231 234 236 230 215 211 205 209 215 218 222 227 231 232 237 244 256 267 272 276 281 284 284 285 287 286 295
144 151 156 160 166 163 161 166 165 168 170 170 186 189 194 197 202 200 200 205 212 221 243 235 216 208 211 216 220 227 230 231 230 212 224 227 227 230 232 236 242 249 258 263 265 272 279 277 277 281 283 286 286 292
148 161 168 164 159 160 165 161 158 166 168 176 186 190 193 194 185 207 217 221 225 233 254 225 215 213 214 216 215 225 233 234 226 220 220 225 230 235 241 247 254 258 264 270 275 272 275 275 278 285 286 287 288 289
151 152 162 159 157 161 159 160 166 177 185 189 189 192 199 206 212 224 226 224 224 226 222 217 214 219 218 223 227 230 229 234 240 236 233 232 232 235 241 249 254 263 272 273 273 272 276 280 283 286 286 285 287 292
150 153 156 157 161 168 172 176 184 189 191 191 197 200 207 216 220 222 218 218 216 215 217 217 220 221 221 222 226 230 238 242 242 243 241 244 245 246 246 250 260 267 269 269 273 277 281 284 285 287 289 290 292 294
144 155 159 166 170 173 179 189 197 200 200 201 199 204 213 218 210 209 203 202 208 210 210 213 218 223 226 228 233 235 240 240 245 247 251 253 256 255 253 255 259 263 267 270 274 279 282 283 285 288 289 291 294 296
138 143 154 165 171 179 185 193 198 201 203 205 208 217 220 205 202 206 211 215 219 222 224 228 232 234 236 238 241 242 238 237 240 245 249 254 257 258 258 258 260 263 268 274 276 279 282 283 286 289 292 293 294 296
149 153 151 152 159 171 177 181 184 187 193 203 210 214 212 207 207 211 218 222 224 225 227 230 233 235 237 237 236 237 237 241 245 249 252 257 259 260 260 260 263 270 274 276 278 280 284 289 291 292 294 295 297 299
135 150 162 167 172 177 184 189 193 196 201 206 210 211 213 214 218 221 220 220 222 224 228 233 239 242 244 246 246 245 247 248 250 255 258 258 259 260 262 266 270 273 276 278 280 283 285 289 292 294 295 297 298 299
114 145 160 166 176 184 191 193 199 202 203 204 208 211 214 220 223 225 230 236 238 241 244 248 250 250 249 249 249 249 251 253 255 256 258 262 265 267 270 271 273 274 276 278 282 284 288 291 293 295 296 297 299 301
79 96 166 190 199 205 203 204 204 208 212 210 210 215 219 224 229 232 236 242 247 248 249 251 253 255 255 255 254 253 254 257 260 264 267 269 271 273 275 275 275 276 279 282 285 287 289 292 293 295 297 299 302 304
4 186 211 221 223 220 218 219 221 220 220 220 222 222 222 226 231 235 237 239 242 246 249 252 256 257 258 259 259 259 258 261 265 267 268 269 270 272 274 276 278 281 283 285 287 289 291 293 295 297 299 302 303 303
267 262 257 242 233 232 233 230 229 229 230 232 232 234 234 236 239 242 244 246 246 249 251 252 254 256 256 256 257 259 261 265 267 270 271 272 273 273 274 277 280 283 285 286 289 292 295 297 299 301 303 302 302 303
260 254 251 253 249 242 237 238 238 239 239 239 237 237 239 240 242 243 244 245 248 250 250 251 253 254 254 257 259 261 264 267 270 272 274 275 275 277 279 280 282 285 287 290 294 296 298 300 301 300 301 302 302 303
275 263 253 244 247 247 246 245 245 243 239 242 245 246 244 243 244 243 243 244 245 246 247 249 251 255 257 258 258 260 265 268 270 272 274 275 276 278 281 283 285 287 291 294 297 298 298 298 300 300 300 300 302 304
359 319 275 252 242 241 244 244 245 246 246 240 243 248 251 250 248 248 248 249 251 253 254 255 254 255 256 258 260 263 266 269 270 271 272 275 277 281 285 288 291 293 295 295 295 297 298 298 297 299 302 304 305 305
14 22 24 15 247 239 245 243 244 247 247 244 242 244 247 250 252 252 253 253 252 252 253 253 254 255 258 260 263 264 267 269 272 275 278 281 283 286 289 291 291 292 293 296 297 297 299 301 302 302 302 303 303 303
17 9 3 4 9 345 270 249 240 235 231 235 242 243 247 250 250 251 252 253 254 255 257 259 259 259 259 262 264 266 270 272 276 278 281 284 287 288 288 289 292 294 296 298 299 300 299 298 297 298 300 302 304 306
348 349 346 337 335 322 292 268 257 245 239 235 236 237 238 242 245 249 250 253 256 259 260 260 262 263 265 267 271 274 276 278 279 281 282 284 286 289 292 293 295 296 296 295 295 295 296 298 298 299 301 302 303 304
325 332 330 325 316 305 297 290 278 270 262 256 249 243 241 242 244 247 253 253 254 257 259 263 266 269 272 274 275 276 279 281 283 284 286 287 288 289 291 292 292 293 294 296 297 297 298 299 301 302 303 303 303 304
Height
5339 5354 5366 5379 5390 5399 5409 5418 5427 5433 5440 5446 5453 5459 5467 5475 5482 5491 5501 5506 5513 5518 5526 5529 5533 5537 5541 5543 5546 5547 5546 5546 5547 5550 5554 5556 5559 5561 5562 5564 5567 5569 5569 5572 5573 5572 5574 5576 5576 5578 5577 5576 5576 5576
5340 5351 5362 5374 5385 5396 5406 5414 5421 5428 5435 5441 5448 5454 5461 5469 5476 5484 5493 5500 5505 5510 5520 5521 5526 5531 5534 5536 5538 5539 5540 5542 5544 5546 5549 5551 5554 5556 5558 5560 5562 5566 5566 5566 5568 5568 5569 5570 5572 5573 5571 5572 5573 5572
5339 5352 5362 5373 5383 5392 5402 5410 5417 5424 5430 5436 5443 5450 5456 5463 5471 5477 5485 5492 5497 5503 5512 5516 5522 5523 5528 5530 5533 5534 5535 5536 5539 5542 5544 5546 5550 5552 5555 5558 5559 5560 5560 5562 5562 5563 5565 5567 5568 5568 5568 5569 5569 5569
5342 5349 5360 5371 5380 5390 5399 5407 5414 5420 5426 5432 5439 5447 5454 5460 5466 5472 5480 5485 5490 5497 5504 5511 5515 5519 5521 5525 5528 5529 5530 5531 5534 5538 5541 5543 5545 5549 5551 5553 5554 5556 5556 5556 5557 5558 5561 5563 5564 5564 5565 5565 5565 5565
5341 5349 5359 5370 5379 5388 5397 5404 5411 5417 5422 5429 5437 5443 5450 5456 5462 5469 5475 5480 5486 5493 5500 5506 5510 5513 5516 5520 5524 5526 5528 5529 5531 5534 5537 5540 5542 5544 5546 5548 5550 5550 5550 5552 5552 5555 5558 5559 5560 5561 5562 5562 5561 5560
5340 5350 5360 5370 5379 5387 5394 5401 5408 5413 5420 5427 5434 5440 5446 5452 5458 5465 5470 5476 5483 5489 5496 5501 5506 5508 5512 5516 5520 5523 5525 5527 5529 5530 5533 5535 5537 5540 5541 5542 5543 5546 5547 5549 5551 5552 5554 5555 5556 5557 5558 5557 5557 5556
5341 5351 5362 5371 5379 5386 5393 5399 5406 5412 5418 5425 5431 5437 5444 5450 5456 5463 5471 5476 5481 5486 5492 5496 5500 5504 5508 5512 5516 5519 5521 5523 5525 5527 5528 5531 5532 5533 5535 5537 5538 5541 5543 5545 5548 5549 5550 5551 5552 5553 5553 5553 5552 5550
5341 5351 5361 5370 5379 5386 5393 5399 5404 5411 5417 5423 5429 5436 5442 5448 5455 5463 5468 5473 5478 5483 5488 5492 5496 5501 5505 5509 5512 5514 5515 5517 5519 5521 5522 5524 5526 5527 5529 5532 5533 5535 5538 5541 5544 5545 5546 5547 5548 5548 5548 5548 5547 5545
5343 5352 5361 5370 5379 5387 5393 5399 5405 5411 5417 5423 5429 5435 5441 5447 5455 5461 5466 5471 5476 5481 5483 5488 5493 5498 5502 5505 5508 5510 5510 5512 5514 5515 5517 5519 5519 5522 5525 5527 5528 5532 5535 5538 5540 5541 5542 5543 5544 5544 5544 5543 5542 5541
5344 5353 5363 5373 5380 5387 5393 5400 5406 5412 5418 5423 5430 5435 5442 5449 5454 5460 5465 5469 5473 5476 5481 5486 5491 5496 5501 5503 5505 5506 5507 5508 5508 5510 5511 5512 5515 5517 5519 5522 5525 5528 5532 5535 5536 5537 5538 5539 5539 5539 5539 5538 5537 5535
5348 5356 5363 5373 5381 5388 5396 5401 5407 5413 5419 5425 5431 5438 5443 5448 5454 5459 5463 5467 5471 5476 5481 5486 5490 5494 5498 5500 5501 5502 5502 5503 5504 5506 5507 5509 5512 5514 5517 5520 5523 5526 5529 5531 5532 5533 5534 5535 5535 5535 5534 5532 5531 5529
5348 5356 5365 5375 5383 5391 5397 5403 5409 5415 5422 5429 5434 5439 5444 5448 5453 5458 5461 5466 5472 5477 5481 5485 5489 5492 5495 5496 5498 5498 5498 5500 5502 5504 5506 5509 5510 5513 5516 5518 5521 5523 5525 5527 5528 5529 5530 5531 5530 5529 5528 5527 5525 5524
5353 5362 5371 5381 5388 5394 5399 5405 5412 5418 5424 5429 5434 5440 5444 5449 5454 5459 5463 5468 5472 5476 5480 5484 5487 5488 5490 5493 5495 5495 5496 5498 5501 5503 5505 5507 5509 5511 5513 5515 5518 5520 5522 5523 5524 5525 5525 5525 5524 5523 5522 5521 5519 5517
5364 5373 5380 5385 5391 5397 5402 5408 5414 5420 5425 5430 5436 5442 5446 5452 5457 5461 5464 5468 5472 5475 5478 5480 5482 5483 5486 5488 5490 5491 5494 5496 5499 5501 5502 5504 5506 5508 5510 5512 5514 5515 5517 5518 5519 5519 5519 5519 5518 5517 5516 5515 5513 5511
5374 5380 5385 5390 5395 5399 5405 5411 5416 5423 5428 5434 5439 5444 5448 5452 5456 5459 5462 5466 5469 5472 5475 5477 5478 5480 5481 5484 5487 5490 5493 5495 5497 5498 5499 5501 5504 5506 5507 5509 5510 5512 5512 5513 5513 5513 5512 5512 5511 5510 5509 5507 5506 5503
5382 5385 5388 5392 5398 5403 5409 5415 5419 5425 5430 5435 5440 5444 5448 5452 5455 5458 5461 5465 5468 5470 5473 5474 5475 5478 5479 5482 5484 5487 5491 5492 5494 5495 5497 5499 5501 5502 5504 5505 5506 5506 5507 5507 5506 5506 5505 5504 5503 5503 5501 5500 5498 5496
5385 5388 5392 5396 5401 5407 5412 5418 5422 5427 5432 5436 5441 5444 5448 5452 5455 5458 5460 5463 5465 5468 5470 5472 5474 5476 5478 5480 5482 5485 5487 5488 5490 5492 5493 5495 5497 5498 5499 5500 5501 5501 5501 5500 5500 5499 5498 5498 5498 5497 5495 5493 5491 5490
5388 5391 5395 5400 5405 5410 5415 5420 5424 5427 5432 5436 5440 5443 5447 5451 5454 5456 5459 5461 5463 5465 5467 5470 5471 5473 5475 5477 5479 5481 5482 5484 5486 5488 5489 5490 5492 5493 5494 5494 5494 5494 5494 5494 5494 5494 5493 5492 5491 5490 5488 5487 5485 5482
5392 5395 5399 5403 5407 5412 5416 5419 5422 5426 5431 5436 5440 5443 5446 5449 5452 5454 5456 5458 5460 5462 5464 5466 5468 5470 5472 5473 5475 5477 5479 5481 5482 5484 5485 5486 5487 5488 5488 5489 5489 5489 5489 5489 5489 5488 5487 5486 5485 5483 5482 5479 5477 5474
5397 5400 5403 5406 5410 5413 5416 5419 5423 5427 5430 5435 5438 5441 5444 5446 5449 5452 5454 5456 5458 5460 5462 5463 5465 5467 5468 5470 5472 5473 5475 5476 5478 5479 5480 5481 5481 5482 5482 5483 5483 5483 5483 5483 5482 5482 5481 5479 5477 5476 5473 5471 5468 5465
5402 5404 5406 5408 5411 5414 5417 5419 5422 5425 5428 5432 5435 5438 5441 5444 5447 5450 5452 5454 5456 5457 5459 5460 5461 5463 5465 5466 5468 5469 5470 5471 5473 5474 5475 5475 5476 5476 5476 5477 5477 5477 5477 5476 5475 5474 5473 5471 5469 5467 5464 5462 5459 5456
5406 5407 5409 5410 5412 5415 5417 5419 5422 5424 5427 5429 5432 5435 5438 5440 5444 5447 5449 5452 5453 5454 5456 5457 5458 5459 5461 5462 5463 5464 5466 5467 5468 5469 5469 5470 5470 5470 5470 5470 5470 5470 5469 5469 5467 5466 5464 5462 5460 5458 5455 5452 5450 5447
5409 5410 5411 5411 5413 5414 5417 5418 5420 5422 5424 5427 5429 5432 5435 5437 5440 5443 5446 5448 5449 5450 5452 5453 5454 5455 5457 5458 5459 5460 5461 5462 5462 5463 5463 5464 5464 5464 5464 5464 5463 5463 5462 5461 5459 5458 5456 5453 5451 5448 5446 5443 5440 5437
5410 5410 5410 5411 5413 5414 5415 5416 5417 5419 5421 5424 5426 5428 5431 5434 5436 5438 5441 5443 5444 5445 5446 5448 5448 5450 5451 5452 5453 5454 5455 5456 5456 5456 5457 5457 5457 5457 5457 5456 5456 5454 5453 5452 5450 5449 5447 5444 5442 5439 5437 5434 5430 5426
5411 5411 5411 5410 5410 5412 5413 5414 5416 5417 5418 5420 5422 5424 5427 5429 5431 5433 5435 5436 5437 5439 5440 5442 5443 5444 5445 5446 5447 5448 5448 5449 5449 5450 5450 5450 5450 5449 5449 5448 5447 5446 5445 5443 5441 5439 5437 5435 5432 5430 5427 5423 5420 5415
5408 5408 5408 5407 5408 5409 5409 5410 5412 5413 5415 5416 5418 5420 5421 5423 5425 5427 5429 5430 5431 5433 5434 5435 5436 5438 5438 5439 5440 5440 5441 5442 5442 5443 5443 5443 5442 5442 5441 5440 5439 5438 5436 5434 5432 5430 5428 5425 5422 5419 5416 5412 5409 5405
5403 5403 5403 5404 5404 5405 5405 5406 5407 5408 5409 5410 5412 5414 5415 5417 5419 5422 5422 5423 5425 5426 5427 5428 5429 5430 5431 5432 5433 5434 5434 5435 5435 5435 5435 5435 5434 5433 5432 5431 5430 5429 5427 5425 5423 5421 5418 5415 5412 5409 5406 5402 5398 5394
5395 5395 5396 5398 5398 5400 5401 5402 5402 5403 5404 5406 5407 5408 5409 5411 5413 5414 5415 5416 5418 5419 5420 5421 5422 5423 5424 5425 5426 5427 5427 5428 5428 5427 5427 5426 5425 5424 5424 5423 5422 5420 5418 5416 5414 5411 5408 5406 5403 5399 5395 5392 5388 5384
5392 5390 5390 5390 5392 5394 5395 5396 5397 5398 5399 5400 5401 5403 5404 5405 5406 5407 5408 5410 5411 5412 5413 5415 5416 5417 5417 5418 5419 5419 5419 5419 5419 5419 5418 5418 5417 5417 5415 5414 5413 5411 5409 5406 5404 5401 5399 5396 5392 5389 5385 5382 5378 5375
5393 5391 5389 5388 5388 5389 5391 5392 5392 5393 5394 5395 5396 5398 5399 5400 5401 5401 5402 5403 5405 5406 5407 5408 5409 5409 5410 5411 5411 5411 5411 5411 5411 5411 5411 5410 5410 5409 5407 5406 5404 5402 5400 5397 5395 5392 5389 5386 5383 5380 5377 5373 5369 5365
5394 5392 5391 5390 5389 5389 5389 5388 5388 5389 5389 5390 5391 5393 5394 5395 5396 5397 5398 5399 5400 5400 5401 5402 5403 5403 5404 5404 5404 5405 5405 5405 5405 5404 5403 5403 5401 5400 5398 5397 5395 5393 5390 5388 5385 5383 5380 5377 5374 5370 5366 5363 5359 5355
5394 5393 5391 5390 5389 5388 5387 5387 5387 5387 5387 5387 5387 5388 5389 5390 5391 5392 5393 5394 5395 5396 5396 5396 5397 5397 5398 5398 5398 5398 5398 5397 5397 5396 5395 5394 5393 5391 5389 5388 5385 5383 5381 5379 5376 5373 5370 5367 5363 5360 5356 5353 5349 5345
5392 5391 5389 5388 5387 5386 5386 5385 5384 5384 5384 5384 5384 5384 5385 5386 5386 5387 5387 5388 5389 5389 5389 5390 5390 5390 5390 5390 5390 5390 5389 5389 5388 5387 5386 5385 5384 5382 5380 5378 5376 5374 5371 5369 5366 5363 5360 5356 5353 5349 5345 5342 5338 5335